User: anonymous   Login
Location: Unspecified
(0.0000°N, 0.0000°E)
Time: 04:02:06
(UTC+00:00)
Language:

QIANFAN-36 - Orbit

View from above orbital plane
View from above orbital plane
View from above satellite
View from above satellite

Ground track
Ground track

The orbit is defined by the following mean orbital elements,

1 61569U          26145.60317465 +.00000000 +00000-0 +15688-3 0 00001
2 61569  88.9808  63.9576 0004326 300.7041  59.3686 13.55631310    01
Epoch (UTC): 25 May 2026 14:28:34
Eccentricity: 0.0004326
inclination: 88.9808°
perigee height: 1048 km
apogee height: 1055 km
right ascension of ascending node: 63.9576°
argument of perigee: 300.7041°
revolutions per day: 13.55631310
mean anomaly at epoch: 59.3686°

The dashed part of the orbit path shows where the satellite is in the earth's shadow,  

DLR